Location: Larch Mountain
(45.5297°N, 122.0872°W)
Time: 07:06:33
(UTC-07:00)

ISS - All Passes

Search period start: 21 September 2014 00:00
Search period end: 01 October 2014 00:00
Orbit: 413 x 417 km, 51.6° (Epoch: 21 September)

Date Brightness Start Highest point End Pass type
(mag) Time Alt. Az. Time Alt. Az. Time Alt. Az.
21 Sep - 02:32:39 10° SSW 02:35:39 32° SE 02:38:40 10° ENE night (unlit)
21 Sep - 04:09:01 10° W 04:12:16 49° NNW 04:15:32 10° NE visible
21 Sep - 05:46:34 10° WNW 05:49:29 27° N 05:52:24 10° ENE visible
21 Sep - 07:23:31 10° NW 07:26:43 43° NNE 07:29:55 10° E daylight
21 Sep - 09:00:17 10° WNW 09:03:26 39° SW 09:06:34 10° SSE daylight
22 Sep - 01:44:25 10° S 01:46:54 20° SE 01:49:24 10° E night (unlit)
22 Sep - 03:20:00 10° WSW 03:23:19 70° NNW 03:26:39 10° ENE visible
22 Sep - 04:57:27 10° WNW 05:00:25 28° N 05:03:22 10° NE visible
22 Sep - 06:34:37 10° NW 06:37:42 34° NNE 06:40:47 10° E daylight
22 Sep - 08:11:17 10° WNW 08:14:36 65° SSW 08:17:53 10° SE daylight
23 Sep - 00:56:49 10° SSE 00:58:11 12° SE 00:59:32 10° ESE night (unlit)
23 Sep - 02:31:03 10° SW 02:34:23 77° SSE 02:37:43 10° ENE night (unlit)
23 Sep - 04:08:17 10° WNW 04:11:20 32° NNW 04:14:23 10° NE visible
23 Sep - 05:45:38 10° NW 05:48:37 29° N 05:51:36 10° ENE visible
23 Sep - 07:22:19 10° WNW 07:25:40 81° NNE 07:29:00 10° ESE daylight
23 Sep - 08:59:48 10° W 09:02:00 17° SW 09:04:12 10° S daylight
24 Sep - 01:42:15 10° SW 01:45:27 47° SE 01:48:41 10° ENE night (unlit)
24 Sep - 03:19:04 10° W 03:22:14 39° NNW 03:25:24 10° NE visible
24 Sep - 04:56:34 10° WNW 04:59:29 27° N 05:02:25 10° ENE visible
24 Sep - 06:33:22 10° WNW 06:36:39 55° NNE 06:39:55 10° ESE daylight
24 Sep - 08:10:20 10° W 08:13:12 27° SW 08:16:03 10° SSE daylight
25 Sep - 00:53:38 10° SSW 00:56:33 29° SE 00:59:29 10° ENE night (unlit)
25 Sep - 02:29:51 10° W 02:33:08 52° NNW 02:36:24 10° NE night (unlit)
25 Sep - 04:07:23 10° WNW 04:10:18 27° N 04:13:13 10° ENE visible
25 Sep - 05:44:22 10° NW 05:47:33 40° NNE 05:50:43 10° E visible
25 Sep - 07:21:06 10° WNW 07:24:18 44° SW 07:27:28 10° SE daylight
26 Sep - 00:05:21 10° S 00:07:40 18° SE 00:10:00 10° E night (unlit)
26 Sep - 01:40:42 10° WSW 01:44:02 77° NNW 01:47:23 10° ENE night (unlit)
26 Sep - 03:18:07 10° WNW 03:21:05 29° N 03:24:04 10° NE visible
26 Sep - 04:55:19 10° NW 04:58:23 33° NNE 05:01:26 10° E visible
26 Sep - 06:31:58 10° WNW 06:35:18 73° SSW 06:38:36 10° SE visible
26 Sep - 08:10:23 10° WSW 08:11:27 11° SW 08:12:32 10° SSW daylight
26 Sep - 23:18:03 10° SE 23:18:49 11° SE 23:19:35 10° ESE night (unlit)
27 Sep - 00:51:39 10° SW 00:54:57 69° SSE 00:58:17 10° ENE night (unlit)
27 Sep - 02:28:47 10° W 02:31:51 33° NNW 02:34:56 10° NE night (unlit)
27 Sep - 04:06:10 10° NW 04:09:08 29° N 04:12:06 10° ENE visible
27 Sep - 05:42:52 10° WNW 05:46:12 73° NNE 05:49:31 10° ESE visible
27 Sep - 07:20:10 10° W 07:22:35 19° SW 07:24:59 10° S daylight
28 Sep - 00:02:44 10° SW 00:05:54 42° SE 00:09:04 10° ENE night (unlit)
28 Sep - 01:39:25 10° W 01:42:37 42° NNW 01:45:48 10° NE night (unlit)
28 Sep - 03:16:55 10° WNW 03:19:51 27° N 03:22:46 10° ENE visible
28 Sep - 04:53:45 10° NW 04:57:01 50° NNE 05:00:17 10° E visible
28 Sep - 06:30:38 10° WNW 06:33:36 30° SW 06:36:34 10° SSE visible
28 Sep - 23:14:03 10° SSW 23:16:51 26° SE 23:19:41 10° E night (unlit)
29 Sep - 00:50:05 10° WSW 00:53:22 57° NNW 00:56:40 10° ENE night (unlit)
29 Sep - 02:27:35 10° WNW 02:30:30 28° N 02:33:26 10° ENE night (unlit)
29 Sep - 04:04:36 10° NW 04:07:46 38° NNE 04:10:55 10° E visible
29 Sep - 05:41:18 10° WNW 05:44:32 50° SW 05:47:46 10° SE visible
29 Sep - 22:25:45 10° S 22:27:50 16° SE 22:29:56 10° E night (unlit)
30 Sep - 00:00:48 10° WSW 00:04:08 85° NNW 00:07:29 10° ENE night (unlit)
30 Sep - 01:38:09 10° WNW 01:41:09 30° N 01:44:09 10° NE night (unlit)
30 Sep - 03:15:23 10° NW 03:18:26 32° N 03:21:28 10° ENE night (unlit)
30 Sep - 04:52:02 10° WNW 04:55:23 81° SSW 04:58:42 10° ESE visible
30 Sep - 06:30:01 10° WSW 06:31:35 13° SW 06:33:09 10° SSW visible
30 Sep - 23:11:38 10° SW 23:14:55 61° SSE 23:18:13 10° ENE night (unlit)
